Air Quality Table

TIMESTAMP NO2 SO2 PM10 PM2.5 CO TEMP HUM AIRPRES WS WD NO BENZENE
2021-06-18 12:00 31.96 ug/m3 0.13 ug/m3 21.81 ug/m3 13.15 ug/m3 0.26 mg/m3 26.12 C 53.24 % 1,018.26 mbar 2.17 m/s 146.63 Deg 19.16 ug/m3 0.94 ug/m3
2021-06-18 11:00 33.14 ug/m3 0.16 ug/m3 25.54 ug/m3 17.83 ug/m3 0.33 mg/m3 26.01 C 54.28 % 1,018.39 mbar 1.99 m/s 131.08 Deg 21.98 ug/m3 1.1 ug/m3
2021-06-18 10:00 49.89 ug/m3 0.35 ug/m3 23.64 ug/m3 26.13 ug/m3 0.37 mg/m3 25.45 C 55 % 1,018.50 mbar 2.01 m/s 95.37 Deg 32.96 ug/m3 1.05 ug/m3
2021-06-18 09:00 42.24 ug/m3 0.34 ug/m3 23.98 ug/m3 14.94 ug/m3 0.39 mg/m3 24.44 C 61.11 % 1,018.51 mbar 1.94 m/s 49.76 Deg 31.43 ug/m3 0.98 ug/m3
2021-06-18 08:00 48.02 ug/m3 0.51 ug/m3 40.08 ug/m3 16.53 ug/m3 0.41 mg/m3 23.35 C 69.22 % N/A 1.65 m/s 49.03 Deg 37 ug/m3 2.86 ug/m3
2021-06-18 07:00 45.44 ug/m3 0.26 ug/m3 35.03 ug/m3 27.28 ug/m3 0.44 mg/m3 22.97 C 70.58 % N/A 1.05 m/s 143.95 Deg 28.26 ug/m3 0.98 ug/m3
2021-06-18 06:00 34.45 ug/m3 0.07 ug/m3 29.52 ug/m3 5.83 ug/m3 0.3 mg/m3 22.52 C 71.56 % N/A 0.73 m/s 153.73 Deg 14.15 ug/m3 0.94 ug/m3
2021-06-18 05:00 28.32 ug/m3 0.03 ug/m3 14.94 ug/m3 5.63 ug/m3 0.21 mg/m3 22.18 C 72.94 % N/A 0.62 m/s 143.84 Deg 8.07 ug/m3 1.34 ug/m3
2021-06-18 04:00 14.9 ug/m3 -0.01 ug/m3 14.04 ug/m3 4.72 ug/m3 0.17 mg/m3 22.33 C 72.43 % N/A 0.7 m/s 123.52 Deg 6.63 ug/m3 1.54 ug/m3
2021-06-18 03:00 6.87 ug/m3 -0.13 ug/m3 14.48 ug/m3 8.16 ug/m3 0.09 mg/m3 22.51 C 71.49 % N/A 1.04 m/s 192.7 Deg -0.43 ug/m3 0.26 ug/m3
2021-06-18 02:00 6.45 ug/m3 -0.13 ug/m3 21.94 ug/m3 9.35 ug/m3 0.12 mg/m3 22.62 C 70.63 % N/A 1.08 m/s 206.2 Deg 0.2 ug/m3 0.23 ug/m3
2021-06-18 01:00 14.15 ug/m3 -0.1 ug/m3 20.22 ug/m3 10.3 ug/m3 0.13 mg/m3 22.58 C 70.74 % N/A 0.98 m/s 200.9 Deg 1.39 ug/m3 0.34 ug/m3
2021-06-18 00:00 25.59 ug/m3 -0.04 ug/m3 26.09 ug/m3 10.47 ug/m3 0.18 mg/m3 22.64 C 70.18 % N/A 1.79 m/s 168.07 Deg 4.42 ug/m3 1.63 ug/m3
2021-06-17 23:00 35.04 ug/m3 0.11 ug/m3 31.9 ug/m3 18.16 ug/m3 0.26 mg/m3 22.93 C 66.75 % N/A 1.44 m/s 107.6 Deg 11.66 ug/m3 0.65 ug/m3
2021-06-17 22:00 18.71 ug/m3 0.03 ug/m3 32.93 ug/m3 8.97 ug/m3 0.24 mg/m3 22.82 C 67.59 % N/A 0.94 m/s 104.28 Deg 10.07 ug/m3 0.44 ug/m3
2021-06-17 21:00 12.13 ug/m3 -0.05 ug/m3 32.52 ug/m3 17.94 ug/m3 0.17 mg/m3 22.98 C 66.57 % N/A 1.03 m/s 201.83 Deg 2.21 ug/m3 0.47 ug/m3
2021-06-17 20:00 21.96 ug/m3 0.05 ug/m3 29.49 ug/m3 7.31 ug/m3 0.29 mg/m3 23.24 C 64.79 % N/A 1.3 m/s 148.65 Deg 10.82 ug/m3 0.42 ug/m3
2021-06-17 19:00 21.55 ug/m3 0.04 ug/m3 16.3 ug/m3 11.24 ug/m3 0.25 mg/m3 24 C 59.7 % N/A 1.59 m/s 154.38 Deg 10.27 ug/m3 0.47 ug/m3
2021-06-17 18:00 22.84 ug/m3 0.06 ug/m3 19 ug/m3 12.62 ug/m3 0.25 mg/m3 24.83 C 56.05 % N/A 1.87 m/s 168.05 Deg 12.19 ug/m3 0.66 ug/m3
2021-06-17 17:00 18.71 ug/m3 0.05 ug/m3 36.06 ug/m3 10.56 ug/m3 0.25 mg/m3 25.27 C 53.97 % N/A 2.11 m/s 175.68 Deg 8.78 ug/m3 1.03 ug/m3
2021-06-17 16:00 14.13 ug/m3 -0.03 ug/m3 30.59 ug/m3 6.12 ug/m3 0.18 mg/m3 25.27 C 52.67 % N/A 2.46 m/s 177.87 Deg 5.13 ug/m3 0.55 ug/m3
2021-06-17 15:00 18.81 ug/m3 0.02 ug/m3 18.71 ug/m3 10.79 ug/m3 0.25 mg/m3 25.45 C 52.23 % N/A 2.3 m/s 157.4 Deg 10.86 ug/m3 0.71 ug/m3
2021-06-17 14:00 22.52 ug/m3 0.08 ug/m3 14.09 ug/m3 3.55 ug/m3 0.23 mg/m3 25.33 C 53.11 % N/A 2.47 m/s 157.22 Deg 13.55 ug/m3 0.39 ug/m3
2021-06-17 13:00 26.86 ug/m3 0.08 ug/m3 16.98 ug/m3 4.91 ug/m3 0.23 mg/m3 25.43 C 51.77 % N/A 2.25 m/s 165.13 Deg 16.02 ug/m3 0.68 ug/m3
2021-06-17 12:00 27 ug/m3 0.1 ug/m3 16.37 ug/m3 7.74 ug/m3 0.26 mg/m3 25.34 C 51.78 % N/A 2.36 m/s 144.02 Deg 15.47 ug/m3 0.58 ug/m3
2021-06-17 11:00 23.01 ug/m3 0.07 ug/m3 23.23 ug/m3 13.28 ug/m3 0.23 mg/m3 25.17 C 51.95 % N/A 2.44 m/s 178.22 Deg 13.51 ug/m3 0.68 ug/m3
2021-06-17 10:00 29.34 ug/m3 0.13 ug/m3 34.22 ug/m3 17.65 ug/m3 0.28 mg/m3 24.71 C 53.79 % N/A 2.4 m/s 106.28 Deg 20.54 ug/m3 0.49 ug/m3
2021-06-17 09:00 43.55 ug/m3 0.33 ug/m3 42.41 ug/m3 21.39 ug/m3 0.36 mg/m3 24.22 C 58.9 % N/A 2.26 m/s 154.22 Deg 32.45 ug/m3 2.05 ug/m3
2021-06-17 08:00 50.71 ug/m3 0.35 ug/m3 34.89 ug/m3 36.72 ug/m3 0.42 mg/m3 23.85 C 62.75 % N/A 1.49 m/s 118.85 Deg 36 ug/m3 0.94 ug/m3
2021-06-17 07:00 54.43 ug/m3 0.27 ug/m3 40.74 ug/m3 25.12 ug/m3 0.45 mg/m3 22.9 C 69.98 % N/A 1.1 m/s 192.35 Deg 30.53 ug/m3 2.36 ug/m3
2021-06-17 06:00 51.34 ug/m3 0.06 ug/m3 24.99 ug/m3 4.9 ug/m3 0.38 mg/m3 22.25 C 73.41 % N/A 0.46 m/s 215.35 Deg 13.42 ug/m3 1.05 ug/m3
2021-06-17 05:00 31.3 ug/m3 -0.08 ug/m3 23.3 ug/m3 6.67 ug/m3 0.2 mg/m3 21.54 C 76.02 % N/A 0.52 m/s 221.91 Deg 1.62 ug/m3 0.55 ug/m3
2021-06-17 04:00 10.2 ug/m3 -0.15 ug/m3 18.7 ug/m3 10.52 ug/m3 0.15 mg/m3 21.73 C 75.74 % N/A 0.7 m/s 177.03 Deg 0.07 ug/m3 0.31 ug/m3
2021-06-17 03:00 8.88 ug/m3 -0.1 ug/m3 16.38 ug/m3 9.03 ug/m3 0.1 mg/m3 21.95 C 73.99 % N/A 0.53 m/s 222.23 Deg 0.21 ug/m3 0.18 ug/m3
2021-06-17 02:00 4.46 ug/m3 -0.14 ug/m3 14.88 ug/m3 7.83 ug/m3 0.12 mg/m3 22.16 C 72.15 % N/A 0.74 m/s 211.48 Deg -0.47 ug/m3 0.26 ug/m3
2021-06-17 01:00 6.25 ug/m3 -0.09 ug/m3 21.41 ug/m3 11.99 ug/m3 0.13 mg/m3 22.42 C 69.15 % N/A 0.96 m/s 198.28 Deg 1.01 ug/m3 0.23 ug/m3
2021-06-17 00:00 7.6 ug/m3 -0.15 ug/m3 36.04 ug/m3 18.51 ug/m3 0.15 mg/m3 22.57 C 67.8 % N/A 1.06 m/s 182.87 Deg -0.02 ug/m3 0.37 ug/m3
2021-06-16 23:00 12.14 ug/m3 -0.05 ug/m3 32.07 ug/m3 10.74 ug/m3 0.19 mg/m3 22.65 C 68.71 % N/A 1.31 m/s 157.7 Deg 1.84 ug/m3 0.28 ug/m3
2021-06-16 22:00 13.17 ug/m3 -0.07 ug/m3 33.78 ug/m3 18.88 ug/m3 0.17 mg/m3 22.85 C 66.76 % N/A 1.42 m/s 159.82 Deg 2.88 ug/m3 0.44 ug/m3
2021-06-16 21:00 18.27 ug/m3 -0.02 ug/m3 22.56 ug/m3 6.85 ug/m3 0.22 mg/m3 23.12 C 63.24 % N/A 1.46 m/s 154.58 Deg 6.13 ug/m3 0.44 ug/m3
2021-06-16 20:00 16.37 ug/m3 -0 ug/m3 25.54 ug/m3 6 ug/m3 0.21 mg/m3 23.52 C 58.42 % N/A 1.84 m/s 178.05 Deg 4.8 ug/m3 0.61 ug/m3
2021-06-16 19:00 14.9 ug/m3 -0.04 ug/m3 29.46 ug/m3 2.35 ug/m3 0.19 mg/m3 24.35 C 54.35 % N/A 2.24 m/s 182.05 Deg 2.8 ug/m3 0.34 ug/m3
2021-06-16 18:00 14.32 ug/m3 -0.03 ug/m3 28.79 ug/m3 4.71 ug/m3 0.2 mg/m3 24.93 C 51 % N/A 2.43 m/s 184.37 Deg 3.88 ug/m3 1.1 ug/m3
2021-06-16 17:00 18.1 ug/m3 0.05 ug/m3 25.74 ug/m3 3.66 ug/m3 0.19 mg/m3 25.61 C 46.81 % N/A 2.51 m/s 187.72 Deg 7.71 ug/m3 0.34 ug/m3
2021-06-16 16:00 19.26 ug/m3 0.03 ug/m3 25.26 ug/m3 5.7 ug/m3 0.18 mg/m3 26.02 C 41.76 % N/A 2.35 m/s 173.97 Deg 8.59 ug/m3 0.44 ug/m3
2021-06-16 15:00 28.03 ug/m3 0.09 ug/m3 17.54 ug/m3 5.18 ug/m3 0.21 mg/m3 26.45 C 38.08 % N/A 2.54 m/s 147.73 Deg 15.24 ug/m3 0.49 ug/m3
2021-06-16 14:00 27.83 ug/m3 0.11 ug/m3 14.02 ug/m3 6.29 ug/m3 0.22 mg/m3 26.3 C 37.14 % N/A 2.22 m/s 135.68 Deg 16.4 ug/m3 0.47 ug/m3

It is to be noted that the data is provisional and subject to quality assurance procedures. For validated data kindly refer your request to contact.air@era.org.mt